[[{"header":{"parameterUnit":"m.s-1","parameterCategory":1,"la1":30.2991,"la2":30.254,"lo1":-89.0895,"lo2":-89.0444,"dy":0.0017,"dx":0.0017,"nx":28,"ny":28,"refTime":"2024-08-11T09:00:00:Z","depth":0,"parameterNumber":2,"parameterNumberName":"U-component_of_WINDS"},"data":[0,0,0,0,0,0,0,0,0,0,0,0,0,0,0,0,0,0,0,0,0,0,0,0,0,0,0,0,0,0,0,0,0,0,0,0,0,0,0,0,0,0,0,0,0,0,0,0,0,0,0,0,0,0,0,0,0,0,4.5375,4.5376,0,4.5419,4.5419,4.542,4.5276,4.5272,4.5267,4.5263,4.5311,4.5316,4.5322,0,0,0,0,0,0,0,0,0,0,0,0,0,4.517,4.5175,4.5375,4.5376,4.5376,4.5418,4.5419,4.542,4.5277,4.5271,4.5266,4.5261,4.5309,4.5316,4.5322,0,0,0,0,0,0,0,0,0,0,0,0,0,4.5241,4.5176,4.5375,4.531,4.5305,4.5418,4.5419,4.542,4.5278,4.5271,4.5265,4.5259,4.5307,4.5315,4.5323,4.5503,0,0,4.5347,4.5351,0,0,0,0,0,0,0,0,4.5237,4.5249,4.5319,4.5315,4.5309,4.5335,4.5364,4.5448,4.528,4.5288,4.5263,4.5256,4.5325,4.5331,4.5353,4.5505,4.5507,4.5348,4.5353,4.5356,4.5359,0,0,0,0,0,0,0,4.5233,4.5246,4.5392,4.532,4.5314,4.5279,4.5282,4.5379,4.5343,4.5287,4.5277,4.5283,4.5321,4.5346,4.5353,4.5508,4.5348,4.5355,4.536,4.5363,4.5805,4.5812,0,0,0,0,0,0,4.5236,4.5243,4.5391,4.5394,4.5256,4.5288,4.5291,4.5333,4.5341,4.5336,4.5289,4.5277,4.5335,4.5344,4.5355,4.5562,4.5356,4.5364,4.5368,4.5798,4.5807,4.5814,0,0,0,0,0,0,4.5232,4.525,4.5389,4.5316,4.533,4.5298,4.5347,4.5338,4.5363,4.5343,4.5335,4.5322,4.5331,4.5343,4.5466,4.5562,4.5367,4.5375,4.579,4.5801,4.5811,4.5982,0,0,0,0,0,0,4.5227,4.525,4.5318,4.5318,4.5335,4.55,4.5353,4.5343,4.5376,4.5361,4.5371,4.5367,4.5327,4.5455,4.5474,4.5569,4.5381,4.5781,4.5795,4.5807,4.5967,4.5997,4.6022,0,0,0,0,0,4.522,4.5366,4.5322,4.534,4.5419,4.5506,4.5515,4.5465,4.5385,4.5452,4.5439,4.5366,4.5549,4.5468,4.5489,4.5588,4.5775,4.5791,4.5806,4.5955,4.5991,4.6021,0,0,0,0,0,0,4.5379,4.5364,4.5316,4.5466,4.5488,4.5481,4.5565,4.5505,4.5552,4.5535,4.5472,4.5476,4.5609,4.5611,4.5522,4.5761,4.5648,4.5669,4.5754,4.5788,4.5815,4.5811,4.5387,0,0,0,0,0,4.5431,4.5502,4.5486,4.562,4.5633,4.5598,4.5634,4.5593,4.5614,4.5623,4.5618,4.5642,4.5704,4.5747,4.5803,4.5968,4.5966,4.6046,4.6073,4.6096,4.6114,4.6197,4.6232,4.5866,4.5866,4.5865,0,0,4.554,4.5541,4.559,4.5652,4.5664,4.5739,4.5607,4.5692,4.5747,4.5636,4.575,4.5748,4.577,4.5914,4.5977,4.592,4.6215,4.6116,4.6134,4.6139,4.6217,4.6252,4.6283,4.5876,4.5874,4.5873,0,0,4.5776,4.5785,4.5896,4.591,4.593,4.5905,4.5932,4.5934,4.5928,4.6041,4.5959,4.6024,4.6133,4.6151,4.6175,4.6417,4.635,4.6437,4.6579,4.6662,4.669,4.6715,4.6799,4.683,4.6455,4.6456,4.6456,0,4.5909,4.6018,4.5961,4.6051,4.608,4.5982,4.6093,4.611,4.6148,4.617,4.6106,4.6239,4.6248,4.6392,4.6451,4.6474,4.6502,4.6434,4.6691,4.6715,4.6738,4.6817,4.6848,4.6466,4.6465,4.6464,4.6463,0,4.6179,4.6256,4.6343,4.6379,4.6418,4.6519,4.6477,4.6524,4.648,4.6462,4.6578,4.6584,4.6639,4.6671,4.663,4.6809,4.6773,4.6701,4.6586,4.6784,4.6856,4.6886,4.6481,4.6477,4.6474,4.6471,0,0,4.6515,4.6518,4.6551,4.6565,4.6579,4.6637,4.6733,4.6785,4.6825,4.6855,4.6932,4.7026,4.6959,4.6986,4.6946,4.7019,4.7206,4.6937,4.6937,4.6984,4.7401,4.7452,4.7488,4.7163,4.7169,4.7173,4.7398,0,4.6744,4.6906,4.6857,4.7021,4.7089,4.6997,4.708,4.7098,4.7084,4.714,4.7125,4.7191,4.7099,4.7114,4.7183,4.7169,4.7288,4.7152,4.7233,4.7237,4.7227,4.7527,4.7582,4.7794,4.7426,4.7431,4.7435,0,4.7033,4.7071,4.7241,4.7241,4.7268,4.7344,4.7386,4.7442,4.746,4.7444,4.7474,4.7418,4.7511,4.7398,4.7525,4.7433,4.7464,4.7463,4.7469,4.7473,4.7346,4.7535,4.786,4.7891,4.7479,4.7476,4.7473,0,4.7257,4.7352,4.7464,4.748,4.7484,4.7539,4.7543,4.7554,4.7588,4.7626,4.7646,4.7696,4.7722,4.7761,4.772,4.7642,4.7853,4.7736,4.7841,4.7842,4.7887,4.7885,4.8219,4.7913,4.7913,4.7912,4.7911,0,4.7516,4.7623,4.7564,4.7634,4.775,4.7693,4.781,4.7804,4.7815,4.7881,4.7806,4.787,4.7813,4.7872,4.7841,4.7949,4.7963,4.7952,4.7942,4.7957,4.7958,4.7974,4.7957,4.792,4.7918,4.7917,4.7915,0,4.7785,4.775,4.7866,4.786,4.7861,4.7947,4.7941,4.8005,4.7985,4.807,4.8086,4.8056,4.8121,4.8084,4.8152,4.8131,4.827,4.8242,4.8264,4.8255,4.836,4.835,4.8714,4.8758,4.8427,4.843,4.8433,0,4.7951,4.803,4.8032,4.807,4.8078,4.8142,4.8175,4.8123,4.816,4.8185,4.8246,4.8304,4.8347,4.8456,4.8439,4.849,4.846,4.8585,4.8468,4.8479,4.8458,4.8453,4.8459,4.8608,4.8611,4.8615,4.8617,0,4.8248,4.8226,4.8276,4.8321,4.8362,4.8395,4.8421,4.8457,4.8405,4.8451,4.8515,4.8549,4.8617,4.8675,4.8718,4.8722,4.8661,4.8655,4.8681,4.8695,4.8703,4.8697,4.8324,4.8646,4.8643,4.8641,4.8639,4.8638,4.8467,4.8532,4.8543,4.8601,4.8615,4.8641,4.8699,4.8686,4.8739,4.8788,4.8755,4.8831,4.8845,4.8896,4.8909,4.8967,4.8917,4.8956,4.8965,4.8975,4.8988,4.8697,4.8975,4.8975,4.8974,4.8973,4.8972,0,4.8757,4.8759,4.8813,4.8851,4.8897,4.8835,4.8861,4.8903,4.897,4.8988,4.9032,4.9105,4.9161,4.9149,4.9199,4.9248,4.9221,4.9263,4.9257,4.9258,4.9031,4.9002,4.9283,4.9283,4.9283,4.9283,4.9283,4.9283,4.8913,4.9019,4.8999,4.911,4.9112,4.9184,4.9204,4.9227,4.9241,4.9326,4.9371,4.9363,4.9368,4.9418,4.9466,4.9461,4.9482,4.9533,4.9518,4.9306,4.9275,4.9245,4.9217,4.9539,4.9539,4.9739,4.9741,4.9743]},{"header":{"parameterUnit":"m.s-1","parameterCategory":1,"la1":30.2991,"la2":30.254,"lo1":-89.0895,"lo2":-89.0444,"dy":0.0017,"dx":0.0017,"nx":28,"ny":28,"refTime":"2024-08-11T09:00:00:Z","depth":0,"parameterNumber":3,"parameterNumberName":"V-component_of_WINDS"},"data":[0,0,0,0,0,0,0,0,0,0,0,0,0,0,0,0,0,0,0,0,0,0,0,0,0,0,0,0,0,0,0,0,0,0,0,0,0,0,0,0,0,0,0,0,0,0,0,0,0,0,0,0,0,0,0,0,0,0,1.9902,1.9902,0,1.9897,1.9897,1.9897,1.9847,1.9846,1.9845,1.9844,1.9839,1.984,1.9841,0,0,0,0,0,0,0,0,0,0,0,0,0,1.9867,1.9868,1.9902,1.9902,1.9902,1.9897,1.9897,1.9897,1.9847,1.9846,1.9844,1.9843,1.9839,1.984,1.9841,0,0,0,0,0,0,0,0,0,0,0,0,0,1.9874,1.9868,1.9902,1.9876,1.9874,1.9897,1.9897,1.9897,1.9848,1.9846,1.9844,1.9842,1.9838,1.984,1.9841,1.9888,0,0,1.9846,1.9847,0,0,0,0,0,0,0,0,1.9874,1.9876,1.988,1.9878,1.9876,1.9871,1.9883,1.9894,1.9848,1.9858,1.9843,1.9841,1.9851,1.9851,1.9855,1.9888,1.9888,1.9846,1.9847,1.9848,1.9848,0,0,0,0,0,0,0,1.9873,1.9876,1.99,1.988,1.9878,1.9865,1.9864,1.9885,1.9865,1.9857,1.9853,1.9853,1.9849,1.9853,1.9854,1.9888,1.9846,1.9847,1.9848,1.9849,1.9958,1.996,0,0,0,0,0,0,1.9877,1.9875,1.99,1.99,1.987,1.9867,1.9866,1.9874,1.9865,1.9861,1.9855,1.9851,1.9852,1.9852,1.9854,1.9907,1.9848,1.9849,1.985,1.9956,1.9958,1.996,0,0,0,0,0,0,1.9876,1.9879,1.99,1.9887,1.9888,1.987,1.9879,1.9875,1.9879,1.9863,1.9859,1.9862,1.985,1.9852,1.988,1.9906,1.985,1.9851,1.9954,1.9957,1.9959,2.0015,0,0,0,0,0,0,1.9875,1.9879,1.9897,1.9887,1.9889,1.9927,1.9881,1.9876,1.9882,1.9877,1.9869,1.9866,1.9849,1.9878,1.9881,1.9907,1.9852,1.9951,1.9955,1.9958,2.0011,2.0019,2.0027,0,0,0,0,0,1.9874,1.9914,1.9899,1.9902,1.9911,1.9928,1.9929,1.9908,1.9884,1.9902,1.9891,1.9866,1.9903,1.9881,1.9885,1.9912,1.9949,1.9954,1.9958,2.0007,2.0018,2.0027,0,0,0,0,0,0,1.9928,1.9912,1.9895,1.9932,1.9932,1.992,1.9941,1.992,1.9927,1.9922,1.9896,1.9894,1.9926,1.9922,1.9898,1.9956,1.9922,1.9927,1.9958,1.9968,1.9976,1.9976,1.9854,0,0,0,0,0,1.9944,1.9959,1.9944,1.9979,1.9979,1.9961,1.9967,1.9951,1.9949,1.9949,1.9941,1.994,1.9951,1.9959,1.9969,2.001,2.0007,2.003,2.0038,2.0045,2.005,2.007,2.0079,1.9975,1.9975,1.9975,0,0,1.9977,1.9971,1.9982,1.9989,1.9987,2.0003,1.9961,1.998,1.9991,1.9952,1.9977,1.9971,1.9969,2.0003,2.0018,2.0001,2.0078,2.0051,2.0056,2.0057,2.0075,2.0085,2.0094,1.9978,1.9977,1.9977,0,0,2.0046,2.0043,2.0071,2.0069,2.0066,2.0053,2.006,2.005,2.0045,2.007,2.004,2.0053,2.0074,2.0073,2.0075,2.0142,2.0119,2.0146,2.0188,2.0208,2.0216,2.0223,2.0246,2.0255,2.0151,2.0151,2.0151,0,2.0088,2.0111,2.0087,2.0108,2.0111,2.0076,2.0103,2.0103,2.0104,2.0107,2.0087,2.011,2.0107,2.014,2.0156,2.0159,2.0165,2.0146,2.0217,2.0224,2.023,2.0252,2.0261,2.0154,2.0154,2.0153,2.0153,0,2.0162,2.0178,2.0201,2.0201,2.0207,2.0231,2.0211,2.022,2.0203,2.0192,2.0217,2.0211,2.0218,2.0225,2.0209,2.0256,2.0245,2.0222,2.0187,2.0244,2.0263,2.0272,2.0159,2.0158,2.0157,2.0156,0,0,2.0265,2.0251,2.026,2.0259,2.0252,2.0264,2.0286,2.0292,2.03,2.0301,2.0318,2.0336,2.0314,2.0316,2.03,2.0317,2.0369,2.0292,2.0291,2.0305,2.0419,2.0436,2.0446,2.0354,2.0356,2.0357,2.0419,0,2.033,2.0366,2.0345,2.0384,2.0398,2.0364,2.0383,2.0381,2.0371,2.0381,2.0371,2.0383,2.0354,2.0355,2.0371,2.036,2.0392,2.0355,2.0369,2.037,2.037,2.0456,2.0474,2.0533,2.0426,2.0428,2.0429,0,2.0411,2.0415,2.0455,2.0445,2.045,2.0467,2.047,2.0481,2.0477,2.0469,2.0471,2.045,2.047,2.0436,2.0463,2.0438,2.0443,2.0439,2.044,2.044,2.0402,2.0458,2.0551,2.056,2.0441,2.044,2.0439,0,2.0481,2.0496,2.0521,2.0522,2.0511,2.0523,2.0519,2.0514,2.0519,2.0522,2.0524,2.053,2.0533,2.0538,2.0519,2.0496,2.0548,2.0512,2.0541,2.0541,2.0553,2.0552,2.0647,2.0557,2.0557,2.0557,2.0557,0,2.0555,2.0581,2.0552,2.0568,2.0595,2.0571,2.0599,2.0591,2.0586,2.0599,2.0571,2.0584,2.0558,2.0569,2.0554,2.0578,2.058,2.0573,2.0569,2.0575,2.0576,2.0577,2.0572,2.0559,2.0559,2.0558,2.0558,0,2.0637,2.0619,2.0645,2.0631,2.0628,2.0649,2.0638,2.0651,2.0639,2.0657,2.0659,2.064,2.0651,2.0632,2.0641,2.0631,2.0664,2.0654,2.0665,2.0662,2.069,2.0688,2.0789,2.0801,2.0705,2.0706,2.0706,0,2.0686,2.0704,2.0693,2.0699,2.0696,2.0708,2.0712,2.0688,2.0694,2.0691,2.0705,2.0713,2.0718,2.0737,2.0724,2.073,2.0719,2.0754,2.072,2.0725,2.0718,2.0717,2.0718,2.0761,2.0762,2.0763,2.0764,0,2.0773,2.0762,2.077,2.0774,2.0779,2.0782,2.0782,2.0789,2.0764,2.0771,2.0781,2.0786,2.0794,2.0802,2.0805,2.08,2.0778,2.0775,2.0782,2.0788,2.0793,2.079,2.0683,2.0773,2.0772,2.0771,2.0771,2.077,2.0838,2.0853,2.0846,2.0855,2.0852,2.0853,2.0865,2.0854,2.0862,2.0866,2.0852,2.0865,2.086,2.0862,2.0859,2.0869,2.0854,2.0864,2.0866,2.0869,2.0873,2.0793,2.087,2.087,2.087,2.0869,2.0869,0,2.0923,2.0917,2.0925,2.0925,2.0932,2.091,2.0909,2.0916,2.0927,2.0925,2.093,2.0941,2.0949,2.0937,2.0942,2.0952,2.0942,2.0954,2.0953,2.0952,2.0887,2.088,2.0962,2.0962,2.0962,2.0962,2.0962,2.0962,2.0968,2.099,2.0979,2.1,2.0994,2.1006,2.1007,2.1007,2.1005,2.1018,2.1024,2.1016,2.1009,2.1013,2.1019,2.1015,2.1018,2.1034,2.1027,2.0966,2.0957,2.0948,2.0941,2.1035,2.1035,2.1091,2.1091,2.1091]}]]